User: anonymous   Login
Location: Kitchener
(43.4500°N, 80.5000°W)
Time: 08:13:11
(UTC-04:00)
Language:

ATLAS 5 CENTAUR R/B - Orbit

View from above orbital plane
View from above orbital plane
View from above satellite
View from above satellite

Ground track
Ground track

The orbit data is extracted from the following two-line orbital elements,

1 31702U 07027B   16240.41877637 0.00000000  00000-0  00000-0 0    08
2 31702  63.3597 358.6518 0232000   0.0265 359.9735 14.18501075    07
Epoch (UTC): 27 August 2016 10:03:02
Eccentricity: 0.0232000
inclination: 63.3597°
perigee height: 663 km
apogee height: 997 km
right ascension of ascending node: 358.6518°
argument of perigee: 0.0265°
revolutions per day: 14.18501075
mean anomaly at epoch: 359.9735°
orbit number at epoch: 0

The dashed part of the orbit path shows where the satellite is in the earth's shadow,  

DLR